Location: Bailen
(14.1842°N, 120.7958°E)
Time: 18:26:45
(UTC+00:00)

SeaSat 1 - Pass Details

Date: 12 January 2026
Orbit: 737 x 740 km, 108.0° (Epoch: 17 February)

Event Time Altitude Azimuth Distance (km) Brightness Sun altitude
Rises 21:46:13 0° 8° (N) 3,164 5.6 -9.5°
Reaches altitude 10° 21:48:38 10° 360° (N) 2,241 4.7 -8.9°
Maximum altitude 21:53:03 36° 294° (WNW) 1,160 3.0 -7.9°
Drops below altitude 10° 21:57:29 10° 229° (SW) 2,240 4.6 -6.9°
Sets 21:59:53 0° 220° (SW) 3,162 5.5 -6.4°
